Time,TemperatureF,DewpointF,PressureIn,WindDirection,WindDirectionDegrees,WindSpeedMPH,WindSpeedGustMPH,Humidity,HourlyPrecipIn,Conditions,Clouds,dailyrainin,SoftwareType,DateUTC
2013-07-01 00:00:00,71.2,69.7,29.72,WNW,284,0.0,0.0,95,0.00,,,0.02,Wunderground v.1.13,2013-07-01 04:00:00,
2013-07-01 00:10:00,70.7,68.9,29.73,WNW,284,0.0,0.0,94,0.00,,,0.00,Wunderground v.1.13,2013-07-01 04:10:00,
2013-07-01 00:20:00,70.5,69.0,29.74,WNW,284,0.0,0.0,95,0.00,,,0.00,Wunderground v.1.13,2013-07-01 04:20:00,
2013-07-01 00:30:00,70.4,69.2,29.74,WNW,284,0.0,0.0,96,0.00,,,0.00,Wunderground v.1.13,2013-07-01 04:30:00,
2013-07-01 00:40:00,70.1,68.6,29.74,WNW,284,0.0,0.0,95,0.00,,,0.00,Wunderground v.1.13,2013-07-01 04:40:00,
2013-07-01 00:49:00,69.9,68.7,29.73,WNW,284,0.0,0.0,96,0.00,,,0.01,Wunderground v.1.13,2013-07-01 04:49:00,
2013-07-01 01:00:00,69.5,68.3,29.74,SSE,157,0.0,1.0,96,0.00,,,0.01,Wunderground v.1.13,2013-07-01 05:00:00,
2013-07-01 01:10:00,69.0,67.8,29.74,SSE,157,0.0,0.0,96,0.00,,,0.01,Wunderground v.1.13,2013-07-01 05:10:00,
2013-07-01 01:20:00,68.6,67.4,29.73,SSE,157,0.0,0.0,96,0.00,,,0.01,Wunderground v.1.13,2013-07-01 05:20:00,
2013-07-01 01:30:00,68.5,67.6,29.73,SSE,157,0.0,0.0,97,0.00,,,0.01,Wunderground v.1.13,2013-07-01 05:30:00,
2013-07-01 01:40:00,68.3,67.1,29.73,SSE,157,0.0,0.0,96,0.00,,,0.01,Wunderground v.1.13,2013-07-01 05:40:00,
2013-07-01 01:50:00,68.3,67.4,29.73,SSE,157,0.0,0.0,97,0.00,,,0.01,Wunderground v.1.13,2013-07-01 05:50:00,
2013-07-01 01:59:00,68.1,67.2,29.73,SSE,157,0.0,0.0,97,0.00,,,0.01,Wunderground v.1.13,2013-07-01 05:59:00,
2013-07-01 02:00:00,68.1,67.2,29.73,North,-999,0.0,0.0,97,0.00,,,-99.99,WeatherLink 6.0.2,2013-07-01 06:00:00,
2013-07-01 02:10:00,68.1,67.2,29.73,SSE,157,0.0,0.0,97,0.00,,,0.01,Wunderground v.1.13,2013-07-01 06:10:00,
2013-07-01 02:20:00,68.0,67.4,29.73,SSE,157,0.0,0.0,98,0.00,,,0.01,Wunderground v.1.13,2013-07-01 06:20:00,
2013-07-01 02:23:00,68.1,67.5,29.73,North,-999,0.0,0.0,98,0.00,,,-99.99,WeatherLink 6.0.2,2013-07-01 06:23:00,
2013-07-01 02:29:00,68.0,67.4,29.73,SSE,157,0.0,0.0,98,0.00,,,0.01,Wunderground v.1.13,2013-07-01 06:29:00,
2013-07-01 02:30:00,68.0,67.4,29.73,SSE,157,0.0,1.0,98,0.00,,,-99.99,WeatherLink 6.0.2,2013-07-01 06:30:00,
2013-07-01 02:39:00,68.0,67.4,29.73,SSE,157,0.0,0.0,98,0.00,,,0.01,Wunderground v.1.13,2013-07-01 06:39:00,
2013-07-01 02:50:00,68.0,67.4,29.73,SSE,157,0.0,0.0,98,0.00,,,0.01,Wunderground v.1.13,2013-07-01 06:50:00,
2013-07-01 02:59:00,68.0,67.4,29.73,SSE,157,0.0,0.0,98,0.00,,,0.02,Wunderground v.1.13,2013-07-01 06:59:00,
2013-07-01 03:00:00,68.1,67.5,29.73,North,-999,0.0,0.0,98,0.01,,,-99.99,WeatherLink 6.0.2,2013-07-01 07:00:00,
2013-07-01 03:10:00,68.0,67.4,29.73,SSE,157,0.0,0.0,98,0.00,,,0.02,Wunderground v.1.13,2013-07-01 07:10:00,
2013-07-01 03:20:00,68.0,67.7,29.73,SSE,157,0.0,0.0,99,0.00,,,0.02,Wunderground v.1.13,2013-07-01 07:20:00,
2013-07-01 03:30:00,68.1,67.8,29.73,SSE,157,0.0,0.0,99,0.00,,,0.02,Wunderground v.1.13,2013-07-01 07:30:00,
2013-07-01 03:40:00,68.0,67.7,29.73,SSE,158,0.0,0.0,99,0.00,,,0.03,Wunderground v.1.13,2013-07-01 07:40:00,
2013-07-01 03:50:00,68.1,67.8,29.73,SSE,158,0.0,0.0,99,0.00,,,0.03,Wunderground v.1.13,2013-07-01 07:50:00,
2013-07-01 04:00:00,68.1,67.8,29.73,SSE,158,0.0,0.0,99,0.00,,,0.03,Wunderground v.1.13,2013-07-01 08:00:00,
2013-07-01 04:09:00,68.1,67.8,29.74,West,259,0.0,0.0,99,0.00,,,0.03,Wunderground v.1.13,2013-07-01 08:09:00,
2013-07-01 04:20:00,68.2,67.9,29.73,West,259,0.0,0.0,99,0.00,,,0.03,Wunderground v.1.13,2013-07-01 08:20:00,
2013-07-01 04:30:00,68.2,67.9,29.74,West,259,0.0,0.0,99,0.00,,,0.03,Wunderground v.1.13,2013-07-01 08:30:00,
2013-07-01 04:40:00,68.1,67.8,29.75,West,259,0.0,0.0,99,0.00,,,0.03,Wunderground v.1.13,2013-07-01 08:40:00,
2013-07-01 04:50:00,68.1,67.8,29.75,West,259,0.0,0.0,99,0.00,,,0.03,Wunderground v.1.13,2013-07-01 08:50:00,
2013-07-01 04:59:00,68.2,67.9,29.75,West,259,0.0,0.0,99,0.00,,,0.03,Wunderground v.1.13,2013-07-01 08:59:00,
2013-07-01 05:00:00,68.2,67.9,29.75,North,-999,0.0,0.0,99,0.01,,,-99.99,WeatherLink 6.0.2,2013-07-01 09:00:00,
2013-07-01 05:10:00,68.2,67.9,29.76,West,259,0.0,0.0,99,0.00,,,0.04,Wunderground v.1.13,2013-07-01 09:10:00,
2013-07-01 05:19:00,68.1,67.8,29.75,West,259,0.0,0.0,99,0.10,,,0.06,Wunderground v.1.13,2013-07-01 09:19:00,
2013-07-01 05:30:00,67.9,67.6,29.76,West,259,0.0,0.0,99,0.07,,,0.07,Wunderground v.1.13,2013-07-01 09:30:00,
2013-07-01 05:40:00,67.7,67.1,29.77,West,259,0.0,0.0,98,0.00,,,0.07,Wunderground v.1.13,2013-07-01 09:40:00,
2013-07-01 05:50:00,67.6,67.3,29.77,West,259,0.0,0.0,99,0.00,,,0.07,Wunderground v.1.13,2013-07-01 09:50:00,
2013-07-01 06:00:00,67.5,67.2,29.78,West,259,0.0,0.0,99,0.00,,,0.07,Wunderground v.1.13,2013-07-01 10:00:00,
2013-07-01 06:10:00,67.5,67.2,29.78,West,259,0.0,0.0,99,0.00,,,0.07,Wunderground v.1.13,2013-07-01 10:10:00,
2013-07-01 06:20:00,67.6,67.3,29.78,West,259,0.0,0.0,99,0.00,,,0.07,Wunderground v.1.13,2013-07-01 10:20:00,
2013-07-01 06:30:00,67.7,67.4,29.78,West,259,0.0,0.0,99,0.00,,,0.07,Wunderground v.1.13,2013-07-01 10:30:00,
2013-07-01 06:40:00,67.6,67.3,29.77,West,259,0.0,0.0,99,0.00,,,0.07,Wunderground v.1.13,2013-07-01 10:40:00,
2013-07-01 06:50:00,67.6,67.3,29.79,West,259,0.0,0.0,99,0.00,,,0.07,Wunderground v.1.13,2013-07-01 10:50:00,
2013-07-01 07:00:00,67.7,67.4,29.79,West,259,0.0,0.0,99,0.00,,,0.07,Wunderground v.1.13,2013-07-01 11:00:00,
2013-07-01 07:10:00,67.7,67.4,29.79,West,259,0.0,0.0,99,0.00,,,0.07,Wunderground v.1.13,2013-07-01 11:10:00,
2013-07-01 07:20:00,67.8,67.5,29.79,West,259,0.0,0.0,99,0.00,,,0.07,Wunderground v.1.13,2013-07-01 11:20:00,
2013-07-01 07:30:00,67.8,67.5,29.79,West,259,0.0,0.0,99,0.00,,,0.07,Wunderground v.1.13,2013-07-01 11:30:00,
2013-07-01 07:40:00,67.8,67.5,29.78,West,259,0.0,0.0,99,0.00,,,0.07,Wunderground v.1.13,2013-07-01 11:40:00,
2013-07-01 07:50:00,67.9,67.6,29.77,West,259,0.0,0.0,99,0.00,,,0.07,Wunderground v.1.13,2013-07-01 11:50:00,
2013-07-01 08:00:00,67.9,67.6,29.77,West,259,0.0,0.0,99,0.00,,,0.07,Wunderground v.1.13,2013-07-01 12:00:00,
2013-07-01 08:10:00,68.1,68.1,29.79,West,259,0.0,0.0,100,0.00,,,0.07,Wunderground v.1.13,2013-07-01 12:10:00,
2013-07-01 08:20:00,68.1,68.1,29.79,West,259,0.0,0.0,100,0.00,,,0.07,Wunderground v.1.13,2013-07-01 12:20:00,
2013-07-01 08:29:00,68.3,68.3,29.79,West,259,0.0,0.0,100,0.00,,,0.07,Wunderground v.1.13,2013-07-01 12:29:00,
2013-07-01 08:30:00,68.2,67.9,29.79,West,270,0.0,1.0,99,0.00,,,-99.99,WeatherLink 6.0.2,2013-07-01 12:30:00,
2013-07-01 08:40:00,68.1,67.8,29.79,West,259,0.0,0.0,99,0.00,,,0.07,Wunderground v.1.13,2013-07-01 12:40:00,
2013-07-01 08:50:00,68.1,67.8,29.79,West,259,0.0,0.0,99,0.00,,,0.07,Wunderground v.1.13,2013-07-01 12:50:00,
2013-07-01 09:00:00,68.1,67.8,29.80,West,259,0.0,0.0,99,0.00,,,0.07,Wunderground v.1.13,2013-07-01 13:00:00,
2013-07-01 09:10:00,68.2,67.9,29.81,West,259,0.0,0.0,99,0.00,,,0.07,Wunderground v.1.13,2013-07-01 13:10:00,
2013-07-01 09:20:00,68.2,67.9,29.81,West,259,0.0,0.0,99,0.00,,,0.07,Wunderground v.1.13,2013-07-01 13:20:00,
2013-07-01 09:30:00,68.2,67.9,29.81,West,259,0.0,0.0,99,0.00,,,0.07,Wunderground v.1.13,2013-07-01 13:30:00,
2013-07-01 09:40:00,68.2,67.9,29.81,West,259,0.0,0.0,99,0.00,,,0.07,Wunderground v.1.13,2013-07-01 13:40:00,
2013-07-01 09:50:00,68.3,68.0,29.80,West,259,0.0,0.0,99,0.00,,,0.07,Wunderground v.1.13,2013-07-01 13:50:00,
2013-07-01 10:00:00,69.0,68.7,29.80,West,259,0.0,0.0,99,0.00,,,0.07,Wunderground v.1.13,2013-07-01 14:00:00,
2013-07-01 10:10:00,69.4,68.5,29.80,East,89,0.0,1.0,97,0.00,,,0.07,Wunderground v.1.13,2013-07-01 14:10:00,
2013-07-01 10:20:00,69.7,69.1,29.80,East,89,0.0,0.0,98,0.00,,,0.07,Wunderground v.1.13,2013-07-01 14:20:00,
2013-07-01 10:29:00,70.3,69.4,29.80,East,90,0.0,0.0,97,0.00,,,0.07,Wunderground v.1.13,2013-07-01 14:29:00,
2013-07-01 10:30:00,70.3,68.8,29.80,East,90,0.0,2.0,95,0.00,,,-99.99,WeatherLink 6.0.2,2013-07-01 14:30:00,
2013-07-01 10:40:00,70.8,69.3,29.80,East,90,0.0,1.0,95,0.00,,,0.07,Wunderground v.1.13,2013-07-01 14:40:00,
2013-07-01 10:49:00,71.0,68.9,29.80,East,80,0.0,0.0,93,0.00,,,0.07,Wunderground v.1.13,2013-07-01 14:49:00,
2013-07-01 11:00:00,71.5,69.4,29.80,East,80,0.0,0.0,93,0.00,,,0.07,Wunderground v.1.13,2013-07-01 15:00:00,
2013-07-01 11:09:00,72.1,69.6,29.80,SE,125,1.0,1.0,92,0.00,,,0.07,Wunderground v.1.13,2013-07-01 15:09:00,
2013-07-01 11:20:00,72.4,69.6,29.81,East,98,0.0,0.0,91,0.00,,,0.07,Wunderground v.1.13,2013-07-01 15:20:00,
2013-07-01 11:30:00,72.6,69.8,29.80,East,98,0.0,0.0,91,0.00,,,0.07,Wunderground v.1.13,2013-07-01 15:30:00,
2013-07-01 11:40:00,73.0,69.6,29.80,East,98,0.0,0.0,89,0.00,,,0.07,Wunderground v.1.13,2013-07-01 15:40:00,
2013-07-01 11:50:00,73.6,69.8,29.80,East,82,0.0,1.0,88,0.00,,,0.07,Wunderground v.1.13,2013-07-01 15:50:00,
2013-07-01 12:00:00,74.3,70.2,29.80,NE,56,0.0,0.0,87,0.00,,,0.07,Wunderground v.1.13,2013-07-01 16:00:00,
2013-07-01 12:10:00,75.0,70.9,29.80,NW,304,0.0,0.0,87,0.00,,,0.07,Wunderground v.1.13,2013-07-01 16:10:00,
2013-07-01 12:20:00,75.5,70.3,29.80,SE,138,0.0,0.0,84,0.00,,,0.07,Wunderground v.1.13,2013-07-01 16:20:00,
2013-07-01 12:29:00,75.5,70.0,29.80,NW,304,1.0,1.0,83,0.00,,,0.07,Wunderground v.1.13,2013-07-01 16:29:00,
2013-07-01 12:30:00,75.5,70.0,29.80,NW,315,1.0,3.0,83,0.00,,,-99.99,WeatherLink 6.0.2,2013-07-01 16:30:00,
2013-07-01 12:40:00,75.6,70.1,29.80,NW,304,0.0,0.0,83,0.00,,,0.07,Wunderground v.1.13,2013-07-01 16:40:00,
2013-07-01 12:50:00,75.7,70.2,29.79,NW,304,0.0,0.0,83,0.00,,,0.07,Wunderground v.1.13,2013-07-01 16:50:00,
2013-07-01 13:00:00,76.2,69.9,29.79,NNW,331,0.0,0.0,81,0.00,,,0.07,Wunderground v.1.13,2013-07-01 17:00:00,
2013-07-01 13:09:00,76.5,70.9,29.79,NNW,331,0.0,0.0,83,0.00,,,0.07,Wunderground v.1.13,2013-07-01 17:09:00,
2013-07-01 13:20:00,76.9,70.6,29.79,NW,313,0.0,0.0,81,0.00,,,0.07,Wunderground v.1.13,2013-07-01 17:20:00,
2013-07-01 13:30:00,76.8,71.2,29.79,NW,304,0.0,1.0,83,0.00,,,0.07,Wunderground v.1.13,2013-07-01 17:30:00,
2013-07-01 13:40:00,76.3,70.4,29.79,WNW,287,1.0,1.0,82,0.00,,,0.07,Wunderground v.1.13,2013-07-01 17:40:00,
2013-07-01 13:50:00,76.2,71.0,29.79,WNW,287,0.0,0.0,84,0.00,,,0.07,Wunderground v.1.13,2013-07-01 17:50:00,
2013-07-01 14:00:00,76.2,70.7,29.79,WNW,287,0.0,0.0,83,0.00,,,0.07,Wunderground v.1.13,2013-07-01 18:00:00,
2013-07-01 14:10:00,76.8,70.2,29.78,SW,226,0.0,1.0,80,0.00,,,0.07,Wunderground v.1.13,2013-07-01 18:10:00,
2013-07-01 14:20:00,77.9,71.6,29.78,SSE,153,1.0,1.0,81,0.00,,,0.07,Wunderground v.1.13,2013-07-01 18:20:00,
2013-07-01 14:29:00,78.0,71.3,29.77,SSE,159,0.0,1.0,80,0.00,,,0.07,Wunderground v.1.13,2013-07-01 18:29:00,
2013-07-01 14:30:00,78.1,71.4,29.77,SSE,157,0.0,2.0,80,0.00,,,-99.99,WeatherLink 6.0.2,2013-07-01 18:30:00,
2013-07-01 14:40:00,78.1,70.3,29.77,SSE,159,0.0,0.0,77,0.00,,,0.07,Wunderground v.1.13,2013-07-01 18:40:00,
2013-07-01 14:49:00,78.0,71.7,29.77,SSE,159,0.0,0.0,81,0.00,,,0.07,Wunderground v.1.13,2013-07-01 18:49:00,
2013-07-01 15:00:00,78.5,72.2,29.78,SSE,159,0.0,0.0,81,0.00,,,0.07,Wunderground v.1.13,2013-07-01 19:00:00,
2013-07-01 15:09:00,79.5,70.1,29.77,WNW,288,0.0,1.0,73,0.00,,,0.07,Wunderground v.1.13,2013-07-01 19:09:00,
2013-07-01 15:20:00,80.2,71.2,29.77,WNW,292,0.0,0.0,74,0.00,,,0.07,Wunderground v.1.13,2013-07-01 19:20:00,
2013-07-01 15:29:00,80.5,69.8,29.76,WNW,292,0.0,0.0,70,0.00,,,0.07,Wunderground v.1.13,2013-07-01 19:29:00,
2013-07-01 15:30:00,80.5,70.2,29.76,WNW,292,0.0,2.0,71,0.00,,,-99.99,WeatherLink 6.0.2,2013-07-01 19:30:00,
2013-07-01 15:40:00,80.7,69.6,29.76,WNW,292,0.0,1.0,69,0.00,,,0.07,Wunderground v.1.13,2013-07-01 19:40:00,
2013-07-01 15:50:00,81.2,70.9,29.77,WNW,292,0.0,2.0,71,0.00,,,0.07,Wunderground v.1.13,2013-07-01 19:50:00,
2013-07-01 16:00:00,81.6,69.6,29.76,WNW,292,1.0,1.0,67,0.00,,,0.07,Wunderground v.1.13,2013-07-01 20:00:00,
2013-07-01 16:10:00,81.5,70.3,29.76,WNW,292,0.0,0.0,69,0.00,,,0.07,Wunderground v.1.13,2013-07-01 20:10:00,
2013-07-01 16:20:00,81.6,69.6,29.76,WNW,292,0.0,0.0,67,0.00,,,0.07,Wunderground v.1.13,2013-07-01 20:20:00,
2013-07-01 16:30:00,81.8,69.8,29.76,WNW,292,0.0,0.0,67,0.00,,,0.07,Wunderground v.1.13,2013-07-01 20:30:00,
2013-07-01 16:40:00,82.0,70.8,29.76,WNW,292,0.0,0.0,69,0.00,,,0.07,Wunderground v.1.13,2013-07-01 20:40:00,
2013-07-01 16:50:00,81.9,72.0,29.75,WNW,290,0.0,0.0,72,0.00,,,0.07,Wunderground v.1.13,2013-07-01 20:50:00,
2013-07-01 17:00:00,81.6,70.9,29.75,WNW,290,0.0,0.0,70,0.00,,,0.07,Wunderground v.1.13,2013-07-01 21:00:00,
2013-07-01 17:10:00,81.1,71.6,29.76,WNW,290,0.0,0.0,73,0.00,,,0.07,Wunderground v.1.13,2013-07-01 21:10:00,
2013-07-01 17:20:00,80.6,71.9,29.76,WNW,290,0.0,0.0,75,0.00,,,0.07,Wunderground v.1.13,2013-07-01 21:20:00,
2013-07-01 17:30:00,80.0,72.5,29.76,WNW,290,0.0,0.0,78,0.00,,,0.07,Wunderground v.1.13,2013-07-01 21:30:00,
2013-07-01 17:40:00,79.5,73.9,29.76,WNW,290,0.0,0.0,83,0.00,,,0.07,Wunderground v.1.13,2013-07-01 21:40:00,
2013-07-01 17:50:00,79.1,73.8,29.76,WNW,290,0.0,0.0,84,0.00,,,0.07,Wunderground v.1.13,2013-07-01 21:50:00,
2013-07-01 18:00:00,78.9,72.9,29.77,WNW,290,0.0,0.0,82,0.00,,,0.07,Wunderground v.1.13,2013-07-01 22:00:00,
2013-07-01 18:10:00,78.8,72.8,29.77,WNW,290,0.0,0.0,82,0.00,,,0.07,Wunderground v.1.13,2013-07-01 22:10:00,
2013-07-01 18:20:00,78.5,73.3,29.77,WNW,290,0.0,1.0,84,0.00,,,0.07,Wunderground v.1.13,2013-07-01 22:20:00,
2013-07-01 18:30:00,78.1,73.2,29.77,WNW,290,0.0,0.0,85,0.00,,,0.07,Wunderground v.1.13,2013-07-01 22:30:00,
2013-07-01 18:40:00,78.1,72.5,29.76,WNW,290,0.0,0.0,83,0.00,,,0.07,Wunderground v.1.13,2013-07-01 22:40:00,
2013-07-01 18:50:00,78.2,71.5,29.76,WNW,290,0.0,0.0,80,0.00,,,0.07,Wunderground v.1.13,2013-07-01 22:50:00,
2013-07-01 19:00:00,78.3,73.8,29.76,WNW,290,0.0,0.0,86,0.00,,,0.07,Wunderground v.1.13,2013-07-01 23:00:00,
2013-07-01 19:10:00,77.9,72.3,29.77,WNW,290,0.0,0.0,83,0.00,,,0.07,Wunderground v.1.13,2013-07-01 23:10:00,
2013-07-01 19:20:00,77.4,72.2,29.78,WNW,290,0.0,0.0,84,0.00,,,0.07,Wunderground v.1.13,2013-07-01 23:20:00,
2013-07-01 19:30:00,77.1,70.8,29.80,WNW,290,0.0,1.0,81,0.00,,,0.07,Wunderground v.1.13,2013-07-01 23:30:00,
2013-07-01 19:39:00,76.1,70.2,29.81,SE,126,2.0,2.0,82,0.00,,,0.07,Wunderground v.1.13,2013-07-01 23:39:00,
2013-07-01 19:50:00,72.0,67.6,29.82,SE,131,4.0,5.0,86,0.51,,,0.10,Wunderground v.1.13,2013-07-01 23:50:00,
2013-07-01 20:00:00,69.5,66.4,29.82,ENE,57,2.0,2.0,90,0.31,,,0.17,Wunderground v.1.13,2013-07-02 00:00:00,
2013-07-01 20:09:00,68.9,67.1,29.83,ENE,57,0.0,0.0,94,0.07,,,0.18,Wunderground v.1.13,2013-07-02 00:09:00,
2013-07-01 20:20:00,68.6,67.1,29.83,ENE,57,0.0,0.0,95,0.00,,,0.18,Wunderground v.1.13,2013-07-02 00:20:00,
2013-07-01 20:30:00,68.5,67.3,29.84,ENE,57,0.0,0.0,96,0.00,,,0.18,Wunderground v.1.13,2013-07-02 00:30:00,
2013-07-01 20:40:00,68.5,67.6,29.83,ENE,57,0.0,0.0,97,0.00,,,0.18,Wunderground v.1.13,2013-07-02 00:40:00,
2013-07-01 20:50:00,68.7,68.1,29.83,ENE,57,0.0,0.0,98,0.00,,,0.18,Wunderground v.1.13,2013-07-02 00:50:00,
2013-07-01 20:59:00,68.6,68.0,29.84,ENE,57,0.0,0.0,98,0.00,,,0.18,Wunderground v.1.13,2013-07-02 00:59:00,
2013-07-01 21:00:00,68.6,68.0,29.84,North,-999,0.0,0.0,98,0.00,,,-99.99,WeatherLink 6.0.2,2013-07-02 01:00:00,
2013-07-01 21:10:00,68.7,68.1,29.84,ENE,57,0.0,0.0,98,0.00,,,0.18,Wunderground v.1.13,2013-07-02 01:10:00,
2013-07-01 21:20:00,68.8,68.2,29.84,NW,305,0.0,0.0,98,0.00,,,0.18,Wunderground v.1.13,2013-07-02 01:20:00,
2013-07-01 21:30:00,68.8,68.2,29.84,NW,305,0.0,0.0,98,0.00,,,0.18,Wunderground v.1.13,2013-07-02 01:30:00,
2013-07-01 21:40:00,68.9,68.3,29.84,NW,305,0.0,0.0,98,0.00,,,0.18,Wunderground v.1.13,2013-07-02 01:40:00,
2013-07-01 21:49:00,68.9,68.3,29.84,NW,305,0.0,0.0,98,0.00,,,0.18,Wunderground v.1.13,2013-07-02 01:49:00,
2013-07-01 22:00:00,68.9,68.6,29.84,NW,305,0.0,0.0,99,0.00,,,0.18,Wunderground v.1.13,2013-07-02 02:00:00,
2013-07-01 22:10:00,68.8,68.5,29.84,NW,305,0.0,0.0,99,0.00,,,0.18,Wunderground v.1.13,2013-07-02 02:10:00,
2013-07-01 22:20:00,68.8,68.5,29.84,NW,305,0.0,0.0,99,0.00,,,0.18,Wunderground v.1.13,2013-07-02 02:20:00,
2013-07-01 22:30:00,68.8,68.5,29.85,NW,305,0.0,0.0,99,0.00,,,0.18,Wunderground v.1.13,2013-07-02 02:30:00,
2013-07-01 22:39:00,69.0,68.7,29.86,NW,305,0.0,0.0,99,0.00,,,0.18,Wunderground v.1.13,2013-07-02 02:39:00,
2013-07-01 22:50:00,69.0,68.7,29.86,NW,305,0.0,0.0,99,0.00,,,0.18,Wunderground v.1.13,2013-07-02 02:50:00,
2013-07-01 22:59:00,69.0,68.7,29.85,North,351,0.0,0.0,99,0.00,,,0.18,Wunderground v.1.13,2013-07-02 02:59:00,
2013-07-01 23:00:00,69.0,68.7,29.85,NW,315,0.0,2.0,99,0.00,,,-99.99,WeatherLink 6.0.2,2013-07-02 03:00:00,
2013-07-01 23:10:00,69.0,68.7,29.85,North,351,0.0,0.0,99,0.00,,,0.18,Wunderground v.1.13,2013-07-02 03:10:00,
2013-07-01 23:20:00,69.0,68.7,29.86,North,350,0.0,0.0,99,0.00,,,0.18,Wunderground v.1.13,2013-07-02 03:20:00,
2013-07-01 23:30:00,69.0,68.7,29.86,North,350,0.0,0.0,99,0.00,,,0.18,Wunderground v.1.13,2013-07-02 03:30:00,
2013-07-01 23:40:00,69.1,68.8,29.87,North,350,0.0,0.0,99,0.00,,,0.18,Wunderground v.1.13,2013-07-02 03:40:00,
2013-07-01 23:49:00,69.2,68.9,29.87,North,350,0.0,0.0,99,0.00,,,0.18,Wunderground v.1.13,2013-07-02 03:49:00,